Location: Mascot Post Office (historical)
(40.2645°N, 99.5462°W)
Time: 02:41:36
(UTC+00:00)

Meteor 1-11 Rocket - Pass Details

Date: 14 July 2020
Orbit: 832 x 915 km, 81.2° (Epoch: 14 August)

Event Time Altitude Azimuth Distance (km) Brightness Sun altitude
Exits shadow 08:54:15 42° 191° (S) 1,180 4.0 -21.1°
Maximum altitude 08:56:15 87° 279° (W) 839 3.6 -20.9°
Drops below altitude 10° 09:01:48 10° 9° (N) 2,449 7.0 -20.3°
Sets 09:04:13 0° 10° (N) 3,389 8.0 -20.1°
